Location: Cheching
(60.0667°N, 164.2167°W)
Time: 22:14:47
(UTC+00:00)

FO-99 - Pass Details

Date: 26 January 2021
Orbit: 473 x 507 km, 97.2° (Epoch: 25 February)

Event Time Altitude Azimuth Distance (km) Brightness Sun altitude
Exits shadow 06:02:01 13° 359° (N) 1,514 ? -22.6°
Drops below altitude 10° 06:02:30 10° 356° (N) 1,696 ? -22.7°
Sets 06:04:39 0° 349° (NNW) 2,576 ? -22.9°
